Vorticity
13 13 18 12 8 12 12 12 11 10 9 12 13 13 10 13 10 8 9 4 7 7 3 4 4 8 6 10 1 9 13 6 8 17 6 8 7 7 7 6 6 6 5 6
9 7 11 9 10 10 12 10 15 16 12 12 10 8 9 8 9 12 10 4 7 8 3 0 4 -2 2 14 11 17 6 3 9 5 6 8 8 6 7 7 7 7 6 6
11 5 4 5 6 10 9 7 0 6 5 9 8 9 5 9 8 7 10 10 9 15 7 5 3 -1 20 14 13 9 3 5 7 9 10 8 7 7 6 6 5 7 8 9
2 6 13 6 3 7 3 -0 4 0 5 4 4 15 8 4 8 3 5 5 4 7 20 22 26 18 14 10 18 6 3 4 5 7 7 7 5 7 8 9 7 7 9 9
6 5 5 8 10 9 12 2 -2 3 6 6 -3 13 -9 6 10 6 5 4 10 9 11 10 11 11 13 10 8 1 5 4 7 6 6 7 6 5 6 7 7 4 5 6
-0 6 5 5 4 6 9 5 1 4 3 11 -3 1 5 -5 -2 0 5 9 3 7 12 9 9 8 7 7 5 4 5 4 6 4 6 6 4 6 7 5 3 5 7 6
5 0 14 6 3 1 5 9 12 7 10 10 10 15 6 3 0 1 -0 7 5 10 14 16 13 6 6 6 7 11 6 7 6 7 6 4 5 5 7 4 8 7 7 5
8 11 13 9 15 17 12 -1 -8 8 8 12 6 12 6 3 3 3 6 8 8 9 8 2 2 0 6 5 7 7 8 5 7 6 8 4 6 8 4 5 4 7 9 11
18 18 13 11 10 9 9 20 24 17 14 13 6 14 15 13 13 17 14 8 11 9 10 8 5 7 3 6 4 2 4 8 10 7 2 10 7 6 3 2 7 8 9 13
9 13 11 8 10 12 14 10 12 2 5 2 11 11 8 10 -3 0 2 13 7 5 6 14 14 9 4 10 11 9 9 9 9 16 10 7 7 6 5 4 9 10 14 12
2 4 7 6 5 8 6 6 7 10 9 13 12 16 14 15 10 5 7 10 7 14 10 13 16 31 19 13 9 7 8 8 9 6 5 5 7 6 -5 6 8 11 11 13
6 8 8 4 10 10 6 4 3 2 6 4 5 5 17 20 12 5 1 6 14 11 10 13 14 13 5 11 15 8 7 8 4 7 9 9 8 -6 4 16 14 16 12 8
8 8 10 7 8 5 6 8 6 16 14 17 10 25 35 10 9 12 8 5 2 1 11 9 18 7 9 15 17 22 21 19 10 1 12 4 1 -4 19 11 8 -2 1 9
10 7 7 11 7 7 7 -1 9 8 5 13 -3 18 -4 23 27 9 6 5 0 -11 11 2 5 5 13 5 13 14 11 7 14 11 -8 17 6 18 -10 19 18 15 17 14
7 9 10 9 12 13 12 17 15 20 8 17 28 16 7 26 13 33 11 12 21 6 5 2 7 -0 7 -0 13 11 21 39 10 8 42 -6 9 1 35 5 6 8 8 14
10 9 10 9 13 14 14 5 21 19 2 5 -10 30 -1 7 13 29 24 11 -4 34 25 32 27 17 22 9 10 6 1 9 7 -1 -11 2 27 -22 11 6 8 7 5 16
8 10 14 14 3 11 14 24 -2 6 18 10 16 23 28 11 21 23 38 22 13 -4 21 15 30 21 -6 8 2 9 -18 15 17 11 -1 13 7 31 -12 12 14 9 7 -2
12 13 12 10 10 13 19 17 7 17 3 20 14 19 24 23 5 21 8 4 37 15 2 9 25 31 -10 32 20 -8 42 39 12 10 20 9 26 8 -2 7 13 12 2 5
15 14 16 13 12 16 15 5 13 4 15 21 12 17 4 18 29 2 25 13 19 34 15 20 -11 -8 -19 38 -22 23 23 25 19 32 16 28 -4 6 10 7 13 3 3 15
11 10 7 7 7 5 18 16 4 -2 22 16 20 9 17 18 3 11 20 10 29 10 33 13 25 57 69 32 55 42 5 -22 10 -23 3 38 -8 4 1 0 -2 -3 12 10
10 14 7 38 25 20 10 12 3 9 18 11 13 9 20 20 25 17 12 5 17 3 17 -1 -9 13 26 15 22 8 25 13 6 25 20 -8 4 1 8 13 8 13 25 13
12 5 15 -18 4 11 20 24 7 19 5 8 14 8 1 1 10 11 12 28 24 11 9 9 9 20 7 13 2 12 -7 22 2 -8 6 9 7 13 18 16 19 18 11 10
4 15 29 -0 -5 27 9 21 5 20 8 14 13 9 3 -11 2 -19 9 8 9 5 15 35 17 13 6 7 9 12 7 5 6 20 -22 15 22 22 20 11 10 13 10 9
23 17 36 -19 5 18 18 8 9 9 13 -5 8 -6 -4 -3 1 -7 -8 -9 3 12 13 12 18 17 14 9 9 10 13 29 -20 20 21 8 2 2 8 7 9 10 6 12
15 16 13 8 22 21 17 10 12 18 7 2 3 -2 -1 2 6 8 0 11 4 -6 21 20 10 2 15 10 8 11 6 6 6 6 7 -13 8 12 7 8 9 13 11 10
16 14 5 19 -4 29 3 5 10 5 3 1 -3 -1 -0 0 1 -1 7 9 1 -3 -0 30 19 7 11 9 9 8 11 11 10 11 14 14 11 10 13 13 11 12 9 13
Height
5758 5761 5763 5763 5763 5765 5766 5768 5769 5772 5773 5772 5775 5776 5776 5778 5777 5776 5778 5780 5781 5783 5784 5785 5786 5787 5788 5787 5783 5780 5778 5779 5779 5778 5778 5778 5778 5778 5778 5778 5778 5777 5777 5776
5749 5752 5756 5753 5753 5755 5757 5757 5760 5762 5763 5760 5763 5764 5766 5766 5766 5770 5771 5771 5773 5774 5775 5776 5777 5778 5778 5777 5773 5772 5770 5771 5771 5770 5770 5770 5770 5769 5769 5769 5768 5768 5767 5766
5739 5743 5744 5746 5747 5747 5748 5748 5750 5750 5751 5751 5751 5754 5757 5759 5758 5759 5761 5764 5764 5767 5768 5768 5767 5767 5767 5766 5764 5763 5762 5762 5762 5761 5761 5761 5761 5761 5760 5759 5759 5758 5757 5757
5729 5734 5734 5735 5737 5738 5738 5741 5738 5739 5738 5740 5744 5738 5748 5751 5752 5750 5752 5754 5755 5756 5758 5757 5756 5757 5757 5756 5756 5755 5755 5753 5752 5753 5753 5752 5751 5751 5750 5749 5748 5748 5747 5745
5720 5723 5724 5725 5727 5725 5729 5727 5726 5727 5728 5728 5731 5732 5737 5740 5743 5746 5747 5745 5743 5743 5744 5746 5746 5746 5746 5746 5746 5747 5745 5743 5743 5743 5743 5743 5741 5740 5739 5739 5738 5737 5735 5734
5706 5709 5712 5715 5715 5715 5714 5715 5714 5713 5714 5715 5719 5719 5731 5731 5728 5731 5734 5735 5733 5731 5732 5732 5733 5734 5736 5736 5736 5737 5736 5734 5734 5733 5732 5732 5730 5729 5728 5727 5727 5726 5724 5723
5695 5698 5699 5700 5701 5702 5702 5702 5699 5697 5694 5703 5706 5704 5720 5717 5716 5718 5717 5716 5718 5720 5720 5721 5722 5723 5724 5725 5725 5726 5725 5724 5723 5722 5721 5720 5719 5718 5717 5716 5715 5713 5711 5709
5679 5684 5686 5685 5685 5686 5686 5688 5687 5684 5683 5689 5689 5692 5704 5707 5707 5701 5701 5703 5706 5707 5709 5709 5710 5711 5712 5712 5712 5712 5712 5712 5711 5711 5710 5709 5708 5707 5706 5704 5702 5700 5698 5696
5662 5671 5673 5673 5674 5675 5674 5673 5675 5667 5668 5666 5674 5683 5693 5694 5691 5689 5688 5688 5687 5689 5692 5695 5696 5697 5698 5698 5698 5697 5697 5697 5697 5697 5696 5696 5695 5694 5694 5692 5690 5688 5685 5682
5646 5656 5660 5662 5664 5664 5662 5662 5661 5658 5656 5654 5659 5665 5677 5682 5676 5674 5673 5671 5670 5672 5675 5678 5680 5681 5682 5682 5682 5682 5682 5683 5683 5683 5682 5682 5682 5681 5681 5680 5677 5675 5673 5670
5636 5641 5649 5651 5651 5649 5650 5648 5646 5644 5643 5640 5640 5644 5667 5667 5663 5661 5659 5658 5658 5659 5661 5663 5664 5665 5664 5665 5666 5667 5667 5668 5668 5669 5669 5669 5669 5669 5668 5666 5664 5663 5661 5659
5622 5625 5632 5636 5637 5636 5635 5636 5634 5631 5632 5629 5627 5628 5657 5643 5645 5642 5644 5646 5647 5647 5647 5648 5650 5650 5650 5651 5652 5653 5653 5654 5654 5655 5656 5657 5657 5658 5656 5654 5652 5651 5649 5648
5610 5610 5615 5624 5625 5623 5622 5622 5622 5621 5620 5618 5613 5613 5630 5629 5626 5627 5628 5628 5629 5631 5632 5633 5635 5635 5635 5636 5638 5639 5640 5642 5643 5644 5644 5644 5646 5646 5644 5642 5640 5640 5639 5637
5597 5600 5601 5606 5614 5606 5610 5610 5610 5608 5607 5604 5602 5599 5611 5613 5608 5611 5609 5611 5613 5615 5617 5618 5620 5622 5623 5622 5624 5626 5628 5630 5631 5632 5632 5632 5634 5633 5631 5629 5629 5628 5627 5625
5587 5588 5587 5591 5596 5590 5591 5594 5599 5596 5596 5587 5591 5587 5593 5596 5592 5594 5593 5595 5597 5598 5599 5601 5604 5606 5609 5609 5610 5614 5617 5618 5618 5619 5619 5619 5620 5620 5618 5617 5616 5615 5614 5614
5573 5574 5576 5578 5582 5579 5576 5582 5587 5584 5581 5577 5578 5577 5577 5582 5578 5578 5580 5580 5580 5582 5584 5586 5589 5592 5594 5596 5598 5599 5601 5604 5605 5607 5607 5607 5607 5606 5605 5604 5604 5604 5603 5603
5563 5564 5563 5564 5569 5566 5563 5577 5573 5571 5571 5569 5567 5567 5568 5571 5566 5567 5563 5565 5566 5569 5569 5572 5575 5578 5582 5584 5588 5592 5594 5592 5591 5592 5594 5593 5594 5593 5592 5592 5592 5592 5592 5591
5553 5553 5552 5553 5556 5551 5561 5562 5562 5559 5563 5560 5559 5557 5557 5558 5556 5554 5552 5552 5552 5556 5557 5560 5563 5566 5571 5573 5574 5577 5582 5577 5576 5580 5579 5579 5580 5580 5580 5580 5580 5581 5581 5580
5542 5542 5541 5542 5543 5544 5550 5554 5553 5553 5556 5552 5551 5549 5546 5545 5545 5545 5545 5541 5543 5544 5547 5549 5552 5555 5558 5560 5562 5566 5571 5565 5568 5570 5567 5569 5570 5570 5571 5570 5570 5570 5570 5569
5532 5532 5531 5535 5532 5533 5543 5543 5545 5545 5545 5543 5542 5540 5539 5537 5536 5535 5535 5534 5533 5535 5537 5539 5542 5543 5544 5545 5548 5551 5554 5559 5562 5558 5559 5558 5560 5560 5560 5559 5559 5559 5557 5555
5521 5522 5523 5525 5523 5526 5533 5534 5536 5536 5541 5536 5536 5534 5533 5533 5532 5529 5527 5526 5526 5525 5526 5529 5531 5532 5537 5540 5543 5544 5545 5548 5552 5546 5546 5547 5547 5549 5549 5549 5549 5548 5546 5546
5511 5512 5516 5515 5516 5516 5522 5524 5526 5529 5528 5529 5529 5528 5527 5526 5526 5524 5522 5522 5520 5520 5520 5521 5522 5526 5529 5532 5534 5537 5539 5541 5539 5538 5537 5538 5539 5540 5539 5538 5537 5537 5536 5535
5500 5502 5505 5507 5510 5511 5512 5514 5516 5519 5521 5522 5522 5521 5521 5520 5521 5520 5519 5518 5517 5516 5515 5514 5515 5517 5519 5522 5524 5525 5528 5530 5531 5531 5528 5529 5528 5528 5529 5528 5528 5528 5526 5525
5488 5491 5493 5496 5503 5503 5505 5507 5508 5513 5516 5515 5516 5517 5516 5514 5514 5514 5513 5512 5511 5510 5509 5509 5509 5509 5509 5509 5512 5514 5517 5522 5520 5520 5520 5520 5520 5520 5519 5519 5519 5518 5518 5517
5479 5482 5486 5490 5493 5495 5497 5500 5503 5506 5508 5509 5510 5510 5507 5506 5506 5506 5505 5504 5504 5502 5502 5500 5501 5501 5501 5502 5503 5505 5506 5508 5510 5510 5510 5509 5510 5510 5510 5510 5510 5509 5508 5508
5473 5477 5480 5484 5487 5488 5490 5492 5496 5498 5500 5501 5500 5500 5498 5498 5497 5496 5495 5495 5494 5494 5494 5492 5491 5491 5491 5492 5493 5495 5497 5498 5499 5500 5501 5500 5501 5500 5500 5500 5500 5499 5499 5499